FENGYUN 1C DEB, 29842

Orbit data source: Space-Track

FENGYUN 1C DEB, 29842 is space debris in SSO originally from a launch on Mon, 10 May 1999 UTC launched from the Taiyaun Space Center, China (TSC). Fengyun 1C debris stems from the Chinese weather satellite Fengyun-1C, which was intentionally destroyed by a Chinese anti-satellite missile in 2007. This event dramatically increased the amount of space debris, with thousands of trackable fragments posing hazards to satellites and human spaceflight. The Fengyun 1C debris cloud has become a focal point in discussions about space sustainability and the need for international regulations to prevent the creation of new debris.

Loading next visibility...
Identifier
29842, 1999-025EL
Orbit
SSO
Country
Flag of CNCN / PRC
Related business
Manufacturer
Unknown
Mission
Spacecraft
Bus & Motor
Unknown
Mass
Unknown
Launch date (UTC)
1999-05-10 (27 years ago)
Launch vehicle
Unknown
Launch site
Taiyaun Space Center, China (TSC)
Object type
Payload
Rocket body
Debris
Shape & HBR
Unknown shape, 0.1 m
Radar Cross Section
Small (<0.1 m²)

Expand to show TLE details & history
Last TLE update: 20 hours ago

TLE from 20 hours ago
0 FENGYUN 1C DEB
1 29842U 99025EL  26174.98695648  .00002763  00000-0  51704-3 0  9993
2 29842  98.5648 274.3372 0103162 287.4010 127.9728 14.62379856 21707
Epoch: 2026-06-23T23:41Z
TLE epoch observation values (Epoch: 2026-06-23T23:41:13.039Z)
Latitude
55.45326°
Longitude
-5.68496°
Altitude
740.003 km
Speed
7.466 km/s
True Right ascension
17h 27m 04s
True Declination
55° 17' 31"
Sunlit
Object was in daylight at epoch
Visualization orbit readout
Latitude
Unknown
Longitude
Unknown
Altitude
Unknown
Speed
Unknown
Apparent Right ascension
Unknown
Apparent Declination
Unknown
Sunlit
N/A
Visualization observer readout
Local Sidereal Time
06:52:40
Azimuth
Unknown
Elevation
Unknown
Doppler factor
Unknown
Orbital elements
Apogee altitude
755.435 km
Perigee altitude
609.755 km
Semi-major axis
7,060.732 km
Eccentricity
0.01032
Inclination
98.5648°
RAAN
274.3372°
Arg. of periapsis
287.401°
True anomaly
128.89731°
Mean anomaly
127.9728°
Eccentric anomaly
128.43579°
Mean motion
3.65821 °/min
Orbital period
98.41 mins
BSTAR
0.00051704
Loading maneuver chart data...
Computing Atmospheric mass density...

Documentation

Showing up to 5 results
|